Regional Weather Roundup
Issued by NWS

Home | Current Version | Previous Version | Text Only | Print | Product List | Glossary On
Versions: 1 2 3 4 5 6 7 8 9 10 11 12 13 14 15 16 17 18 19 20 21 22 23 24 25 26 27 28
000
ASPQ40 PGUM 270912
RWRPQ
WEATHER ROUNDUP FOR THE MARIANAS AND MICRONESIA
NATIONAL WEATHER SERVICE TIYAN GU
700 PM CHST THU JUL 27 2017

GUZ001>004-271000-
MARIANA ISLANDS-

CITY           SKY/WX    TMP DP  RH WIND       PRES   REMARKS
GUAM AIRPORT   PTCLDY    82  77  83 SW3       29.80R HX  91
ANDERSEN AFB   MOCLDY    82  77  83 S6        29.81R HX  91
ROTA AIRPORT   PTCLDY    84  72  65 SW12      29.80R
TINIAN AP      PTCLDY    82  75  78 SW7       29.77R
SAIPAN AP      CLOUDY    86  79  79 W8        29.78R HX  99

$$

PMZ161-271000-
REPUBLIC OF PALAU-

CITY           SKY/WX    TMP DP  RH WIND       PRES   REMARKS
KOROR AP       MOCLDY    82  75  78 S3          N/A
KOROR WSO      MOCLDY    84  77  79 S5        29.78R HX  94

$$

PMZ171>174-271000-
FEDERATED STATES OF MICRONESIA-

CITY           SKY/WX    TMP DP  RH WIND       PRES   REMARKS
YAP AIRPORT    MOCLDY    84  75  74 NW8       29.76R HX  92
CHUUK AP       MOCLDY    82  79  89 CALM      29.80R HX  93
POHNPEI AP     NOT AVBL
POHNPEI WSO    MOCLDY    79  77  94 SE5       29.87R
KOSRAE AP      NOT AVBL

$$

PMZ181-271000-
REPUBLIC OF THE MARSHALL ISLANDS-

CITY           SKY/WX    TMP DP  RH WIND       PRES   REMARKS
KWAJALEIN AP   CLEAR     84  77  79 E20       29.85R HX  94
MAJURO AP      NOT AVBL
MAJURO WSO     LGT RAIN  81  77  89 E14       29.84R

$$





USA.gov is the U.S. government's official web portal to all federal, state and local government web resources and services.